| time (UTC) | temp C | wind direction | speed KPH | gust KPH | rain 1hr cm | rain 24hr cm | rain mn cm | humidity % | barometer mb |
| 20260507212358 | 19 | 315 | 3.2 | 8.0 | 0.00 | 0.03 | 0.03 | 63 | 1018.4 |
| 20260507211358 | 18 | 311 | 4.8 | 11.3 | 0.00 | 0.03 | 0.03 | 65 | 1018.6 |
| 20260507205859 | 18 | 37 | 3.2 | 9.7 | 0.00 | 0.03 | 0.03 | 67 | 1018.8 |
| 20260507205358 | 18 | 346 | 4.8 | 16.1 | 0.00 | 0.03 | 0.03 | 68 | 1018.8 |
| 20260507202858 | 18 | 40 | 3.2 | 9.7 | 0.00 | 0.03 | 0.03 | 67 | 1019.1 |
| 20260507202358 | 18 | 22 | 3.2 | 9.7 | 0.00 | 0.03 | 0.03 | 67 | 1019.1 |
| 20260507201858 | 18 | 179 | 3.2 | 6.4 | 0.00 | 0.03 | 0.03 | 69 | 1019.2 |
| 20260507200858 | 18 | 189 | 3.2 | 11.3 | 0.00 | 0.03 | 0.03 | 66 | 1019.2 |
| 20260507200358 | 18 | 224 | 3.2 | 9.7 | 0.00 | 0.03 | 0.03 | 69 | 1019.3 |
| 20260507195858 | 17 | 294 | 3.2 | 8.0 | 0.00 | 0.03 | 0.03 | 69 | 1019.3 |
| 20260507194858 | 17 | 339 | 4.8 | 9.7 | 0.00 | 0.03 | 0.03 | 70 | 1019.4 |
| 20260507194359 | 17 | 23 | 4.8 | 9.7 | 0.00 | 0.03 | 0.03 | 68 | 1019.4 |
| 20260507192858 | 17 | 204 | 3.2 | 9.7 | 0.00 | 0.03 | 0.03 | 69 | 1019.7 |
| 20260507192359 | 17 | 162 | 3.2 | 9.7 | 0.00 | 0.03 | 0.03 | 74 | 1019.7 |
| 20260507191858 | 16 | 116 | 3.2 | 9.7 | 0.00 | 0.03 | 0.03 | 73 | 1019.8 |
| 20260507191358 | 16 | 80 | 1.6 | 6.4 | 0.00 | 0.03 | 0.03 | 72 | 1019.8 |
| 20260507190358 | 16 | 110 | 3.2 | 8.0 | 0.00 | 0.03 | 0.03 | 72 | 1020.0 |
| 20260507184859 | 15 | 116 | 4.8 | 9.7 | 0.00 | 0.03 | 0.03 | 75 | 1020.2 |
| 20260507184359 | 15 | 144 | 3.2 | 8.0 | 0.00 | 0.03 | 0.03 | 74 | 1020.2 |
| 20260507183358 | 15 | 32 | 1.6 | 4.8 | 0.00 | 0.03 | 0.03 | 77 | 1020.2 |
| 20260507182858 | 15 | 13 | 1.6 | 4.8 | 0.00 | 0.03 | 0.03 | 77 | 1020.3 |
| 20260507182358 | 14 | 47 | 3.2 | 8.0 | 0.00 | 0.03 | 0.03 | 79 | 1020.3 |
| 20260507181858 | 14 | 39 | 3.2 | 8.0 | 0.00 | 0.03 | 0.03 | 79 | 1020.4 |
| 20260507175858 | 13 | 29 | 3.2 | 8.0 | 0.00 | 0.03 | 0.03 | 79 | 1020.6 |
| 20260507174859 | 13 | 84 | 3.2 | 6.4 | 0.00 | 0.03 | 0.03 | 79 | 1020.6 |
| 20260507174358 | 13 | 95 | 3.2 | 6.4 | 0.00 | 0.03 | 0.03 | 80 | 1020.7 |
| 20260507173859 | 13 | 67 | 4.8 | 9.7 | 0.00 | 0.03 | 0.03 | 80 | 1020.7 |
| 20260507172859 | 12 | 63 | 3.2 | 9.7 | 0.00 | 0.03 | 0.03 | 81 | 1020.8 |
| 20260507172357 | 12 | 46 | 3.2 | 9.7 | 0.00 | 0.03 | 0.03 | 80 | 1020.8 |
| 20260507171858 | 12 | 4 | 1.6 | 4.8 | 0.00 | 0.03 | 0.03 | 81 | 1020.7 |
| 20260507171358 | 12 | 17 | 3.2 | 9.7 | 0.00 | 0.03 | 0.03 | 82 | 1020.8 |
| 20260507170859 | 12 | 26 | 4.8 | 9.7 | 0.00 | 0.03 | 0.03 | 81 | 1020.8 |
| 20260507170358 | 12 | 26 | 6.4 | 11.3 | 0.00 | 0.03 | 0.03 | 82 | 1020.8 |
| 20260507165859 | 11 | 16 | 6.4 | 11.3 | 0.00 | 0.03 | 0.03 | 83 | 1020.8 |
| 20260507164858 | 11 | 350 | 6.4 | 11.3 | 0.00 | 0.03 | 0.03 | 82 | 1020.7 |
| 20260507164359 | 11 | 2 | 6.4 | 11.3 | 0.00 | 0.03 | 0.03 | 82 | 1020.8 |
| 20260507163859 | 11 | 10 | 4.8 | 11.3 | 0.00 | 0.03 | 0.03 | 81 | 1020.8 |
| 20260507163358 | 11 | 16 | 4.8 | 6.4 | 0.00 | 0.03 | 0.03 | 82 | 1020.7 |
| 20260507162859 | 11 | 4 | 6.4 | 9.7 | 0.00 | 0.03 | 0.03 | 83 | 1020.7 |
| 20260507162359 | 11 | 7 | 6.4 | 11.3 | 0.00 | 0.03 | 0.03 | 82 | 1020.7 |
| 20260507161859 | 11 | 9 | 6.4 | 11.3 | 0.00 | 0.03 | 0.03 | 82 | 1020.7 |
| 20260507160858 | 11 | 8 | 8.0 | 12.9 | 0.00 | 0.03 | 0.03 | 83 | 1020.6 |
| 20260507160400 | 11 | 16 | 6.4 | 12.9 | 0.00 | 0.03 | 0.03 | 83 | 1020.6 |
| 20260507155858 | 11 | 25 | 4.8 | 11.3 | 0.00 | 0.03 | 0.03 | 83 | 1020.5 |
| 20260507154858 | 11 | 356 | 6.4 | 11.3 | 0.00 | 0.03 | 0.03 | 83 | 1020.6 |
| 20260507154359 | 11 | 10 | 6.4 | 11.3 | 0.00 | 0.03 | 0.03 | 83 | 1020.6 |
| 20260507153859 | 11 | 18 | 4.8 | 9.7 | 0.00 | 0.03 | 0.03 | 83 | 1020.7 |
| 20260507153358 | 11 | 22 | 4.8 | 9.7 | 0.00 | 0.03 | 0.03 | 84 | 1020.7 |
| 20260507152858 | 11 | 20 | 4.8 | 9.7 | 0.00 | 0.03 | 0.03 | 84 | 1020.7 |
| 20260507152358 | 10 | 355 | 4.8 | 11.3 | 0.00 | 0.03 | 0.03 | 84 | 1020.7 |
| 20260507151859 | 10 | 345 | 6.4 | 11.3 | 0.00 | 0.03 | 0.03 | 84 | 1020.8 |
| 20260507151358 | 10 | 1 | 4.8 | 11.3 | 0.00 | 0.03 | 0.03 | 84 | 1020.8 |
| 20260507150859 | 10 | 7 | 4.8 | 11.3 | 0.00 | 0.03 | 0.03 | 84 | 1020.8 |
| 20260507150358 | 10 | 5 | 6.4 | 11.3 | 0.00 | 0.03 | 0.03 | 85 | 1020.8 |
| 20260507145859 | 10 | 3 | 6.4 | 12.9 | 0.00 | 0.03 | 0.03 | 85 | 1020.8 |
| 20260507144900 | 10 | 357 | 8.0 | 12.9 | 0.00 | 0.03 | 0.03 | 85 | 1020.8 |
| 20260507144359 | 10 | 1 | 8.0 | 14.5 | 0.00 | 0.03 | 0.03 | 85 | 1020.8 |
| 20260507143858 | 10 | 359 | 8.0 | 14.5 | 0.00 | 0.03 | 0.03 | 85 | 1020.8 |
| 20260507143359 | 10 | 9 | 6.4 | 12.9 | 0.00 | 0.03 | 0.03 | 85 | 1020.8 |
| 20260507142859 | 10 | 13 | 6.4 | 11.3 | 0.00 | 0.03 | 0.03 | 86 | 1020.7 |
| 20260507142358 | 10 | 30 | 6.4 | 12.9 | 0.00 | 0.03 | 0.03 | 86 | 1020.7 |
| 20260507141858 | 10 | 52 | 6.4 | 12.9 | 0.00 | 0.03 | 0.03 | 87 | 1020.7 |
| 20260507140858 | 10 | 20 | 6.4 | 12.9 | 0.00 | 0.03 | 0.03 | 87 | 1020.6 |
| 20260507140359 | 10 | 16 | 6.4 | 12.9 | 0.00 | 0.03 | 0.03 | 87 | 1020.5 |
| 20260507134859 | 10 | 25 | 4.8 | 6.4 | 0.00 | 0.03 | 0.03 | 87 | 1020.3 |
| 20260507134359 | 10 | 35 | 4.8 | 8.0 | 0.00 | 0.03 | 0.03 | 87 | 1020.3 |
| 20260507133859 | 10 | 34 | 4.8 | 8.0 | 0.00 | 0.03 | 0.03 | 87 | 1020.3 |
| 20260507132359 | 10 | 35 | 4.8 | 8.0 | 0.00 | 0.03 | 0.03 | 86 | 1020.4 |
| 20260507131859 | 10 | 17 | 4.8 | 8.0 | 0.00 | 0.03 | 0.03 | 87 | 1020.5 |
| 20260507130858 | 10 | 15 | 4.8 | 8.0 | 0.00 | 0.03 | 0.03 | 86 | 1020.5 |
| 20260507124858 | 10 | 356 | 3.2 | 6.4 | 0.00 | 0.03 | 0.03 | 87 | 1020.5 |
| 20260507124358 | 10 | 20 | 1.6 | 4.8 | 0.00 | 0.03 | 0.03 | 87 | 1020.5 |
| 20260507123858 | 10 | 23 | 1.6 | 4.8 | 0.00 | 0.03 | 0.03 | 87 | 1020.5 |
| 20260507123359 | 10 | 20 | 1.6 | 4.8 | 0.00 | 0.03 | 0.03 | 87 | 1020.5 |
| 20260507122859 | 10 | 13 | 1.6 | 4.8 | 0.00 | 0.03 | 0.03 | 87 | 1020.5 |
| 20260507121859 | 10 | 341 | 3.2 | 4.8 | 0.00 | 0.03 | 0.03 | 88 | 1020.5 |
| 20260507120859 | 10 | 19 | 3.2 | 6.4 | 0.00 | 0.03 | 0.03 | 88 | 1020.5 |
| 20260507120359 | 10 | 21 | 4.8 | 6.4 | 0.00 | 0.03 | 0.03 | 88 | 1020.5 |
| 20260507115859 | 10 | 30 | 4.8 | 8.0 | 0.00 | 0.03 | 0.03 | 88 | 1020.6 |
| 20260507115359 | 10 | 39 | 4.8 | 8.0 | 0.00 | 0.03 | 0.03 | 88 | 1020.6 |
| 20260507114858 | 10 | 34 | 3.2 | 6.4 | 0.00 | 0.03 | 0.03 | 88 | 1020.6 |
| 20260507114359 | 10 | 36 | 3.2 | 6.4 | 0.00 | 0.03 | 0.03 | 88 | 1020.7 |
| 20260507112859 | 10 | 20 | 3.2 | 9.7 | 0.00 | 0.03 | 0.03 | 88 | 1020.8 |
| 20260507112400 | 10 | 23 | 3.2 | 9.7 | 0.00 | 0.03 | 0.03 | 88 | 1020.9 |
| 20260507111858 | 10 | 12 | 3.2 | 6.4 | 0.00 | 0.03 | 0.03 | 89 | 1020.8 |
| 20260507111359 | 10 | 20 | 4.8 | 6.4 | 0.00 | 0.03 | 0.03 | 89 | 1020.9 |
| 20260507110859 | 10 | 22 | 3.2 | 6.4 | 0.00 | 0.03 | 0.03 | 88 | 1020.9 |
| 20260507105859 | 10 | 11 | 4.8 | 9.7 | 0.00 | 0.03 | 0.03 | 88 | 1020.9 |
| 20260507104859 | 11 | 20 | 4.8 | 8.0 | 0.00 | 0.03 | 0.03 | 88 | 1021.0 |
| 20260507103859 | 11 | 40 | 4.8 | 11.3 | 0.00 | 0.03 | 0.03 | 88 | 1020.9 |
| 20260507103359 | 11 | 40 | 3.2 | 9.7 | 0.00 | 0.03 | 0.03 | 88 | 1021.0 |
| 20260507102859 | 11 | 27 | 3.2 | 4.8 | 0.00 | 0.03 | 0.03 | 88 | 1021.0 |
| 20260507102359 | 11 | 18 | 3.2 | 4.8 | 0.00 | 0.03 | 0.03 | 88 | 1021.1 |
| 20260507101859 | 11 | 6 | 1.6 | 4.8 | 0.00 | 0.03 | 0.03 | 88 | 1021.1 |
| 20260507101400 | 11 | 0 | 0.0 | 3.2 | 0.00 | 0.03 | 0.03 | 89 | 1021.1 |
| 20260507100859 | 11 | 33 | 1.6 | 3.2 | 0.00 | 0.03 | 0.03 | 89 | 1021.1 |
| 20260507100358 | 11 | 32 | 3.2 | 4.8 | 0.00 | 0.03 | 0.03 | 89 | 1021.2 |
| 20260507095859 | 11 | 32 | 1.6 | 4.8 | 0.00 | 0.03 | 0.03 | 88 | 1021.1 |
| 20260507095359 | 11 | 17 | 1.6 | 6.4 | 0.00 | 0.03 | 0.03 | 89 | 1021.1 |
| 20260507094359 | 11 | 23 | 1.6 | 4.8 | 0.00 | 0.03 | 0.03 | 89 | 1021.2 |
| 20260507093359 | 11 | 10 | 3.2 | 6.4 | 0.00 | 0.03 | 0.03 | 88 | 1021.3 |
| 20260507092859 | 11 | 7 | 3.2 | 6.4 | 0.00 | 0.03 | 0.03 | 88 | 1021.3 |
| 20260507092359 | 11 | 9 | 1.6 | 6.4 | 0.00 | 0.03 | 0.03 | 88 | 1021.4 |
| 20260507091859 | 11 | 35 | 1.6 | 6.4 | 0.00 | 0.03 | 0.03 | 88 | 1021.4 |
| 20260507091359 | 11 | 33 | 3.2 | 6.4 | 0.00 | 0.03 | 0.03 | 88 | 1021.5 |
| 20260507090859 | 11 | 17 | 1.6 | 3.2 | 0.00 | 0.03 | 0.03 | 88 | 1021.5 |
| 20260507090359 | 11 | 21 | 1.6 | 3.2 | 0.00 | 0.03 | 0.03 | 88 | 1021.5 |
| 20260507085400 | 11 | 14 | 1.6 | 4.8 | 0.03 | 0.03 | 0.03 | 87 | 1021.6 |
| 20260507084859 | 11 | 22 | 1.6 | 4.8 | 0.03 | 0.03 | 0.03 | 87 | 1021.6 |
| 20260507084359 | 11 | 40 | 1.6 | 4.8 | 0.03 | 0.03 | 0.03 | 87 | 1021.6 |
| 20260507083858 | 11 | 56 | 3.2 | 6.4 | 0.03 | 0.03 | 0.03 | 87 | 1021.6 |
| 20260507082859 | 11 | 50 | 3.2 | 6.4 | 0.03 | 0.03 | 0.03 | 87 | 1021.5 |
| 20260507082359 | 11 | 49 | 4.8 | 9.7 | 0.03 | 0.03 | 0.03 | 86 | 1021.5 |
| 20260507081401 | 11 | 48 | 3.2 | 9.7 | 0.03 | 0.03 | 0.03 | 86 | 1021.5 |
| 20260507080858 | 11 | 0 | 0.0 | 4.8 | 0.03 | 0.03 | 0.03 | 86 | 1021.5 |
| 20260507080359 | 11 | 0 | 0.0 | 1.6 | 0.03 | 0.03 | 0.03 | 86 | 1021.6 |
| 20260507075358 | 11 | 0 | 0.0 | 1.6 | 0.00 | 0.00 | 0.00 | 86 | 1021.5 |
| 20260507074859 | 11 | 0 | 0.0 | 1.6 | 0.00 | 0.00 | 0.00 | 86 | 1021.5 |
| 20260507074400 | 12 | 0 | 0.0 | 0.0 | 0.00 | 0.00 | 0.00 | 86 | 1021.5 |
| 20260507073359 | 12 | 0 | 0.0 | 0.0 | 0.00 | 0.00 | 0.00 | 86 | 1021.5 |
| 20260507072859 | 12 | 0 | 0.0 | 0.0 | 0.00 | 0.00 | 0.00 | 86 | 1021.4 |
| 20260507072359 | 12 | 0 | 0.0 | 0.0 | 0.00 | 0.00 | 0.00 | 86 | 1021.4 |
| 20260507071859 | 12 | 0 | 0.0 | 0.0 | 0.00 | 0.00 | 0.00 | 86 | 1021.4 |
| 20260507070400 | 12 | 44 | 3.2 | 6.4 | 0.00 | 0.00 | 0.00 | 85 | 1021.4 |
| 20260507065906 | 12 | 39 | 4.8 | 6.4 | 0.00 | 0.00 | 0.00 | 86 | 1021.4 |
| 20260507065400 | 12 | 28 | 3.2 | 6.4 | 0.00 | 0.00 | 0.00 | 85 | 1021.4 |
| 20260507064358 | 12 | 31 | 3.2 | 8.0 | 0.00 | 0.00 | 0.00 | 85 | 1021.4 |
| 20260507063859 | 12 | 29 | 3.2 | 6.4 | 0.00 | 0.00 | 0.00 | 85 | 1021.4 |
| 20260507063359 | 12 | 35 | 4.8 | 6.4 | 0.00 | 0.00 | 0.00 | 85 | 1021.4 |
| 20260507062858 | 12 | 41 | 4.8 | 8.0 | 0.00 | 0.00 | 0.00 | 85 | 1021.4 |
| 20260507062359 | 12 | 37 | 4.8 | 11.3 | 0.00 | 0.00 | 0.00 | 85 | 1021.4 |
| 20260507061859 | 12 | 28 | 4.8 | 11.3 | 0.00 | 0.00 | 0.00 | 85 | 1021.4 |
| 20260507061359 | 12 | 6 | 4.8 | 11.3 | 0.00 | 0.00 | 0.00 | 85 | 1021.4 |
| 20260507060859 | 12 | 359 | 4.8 | 11.3 | 0.00 | 0.00 | 0.00 | 84 | 1021.4 |
| 20260507060400 | 12 | 4 | 4.8 | 9.7 | 0.00 | 0.00 | 0.00 | 84 | 1021.4 |
| 20260507055859 | 12 | 358 | 4.8 | 8.0 | 0.00 | 0.00 | 0.00 | 84 | 1021.4 |
| 20260507055359 | 12 | 358 | 4.8 | 9.7 | 0.00 | 0.00 | 0.00 | 84 | 1021.4 |
| 20260507054859 | 13 | 7 | 6.4 | 11.3 | 0.00 | 0.00 | 0.00 | 84 | 1021.4 |
| 20260507054359 | 13 | 11 | 6.4 | 11.3 | 0.00 | 0.00 | 0.00 | 84 | 1021.4 |
| 20260507053859 | 13 | 19 | 6.4 | 11.3 | 0.00 | 0.00 | 0.00 | 84 | 1021.4 |
| 20260507053400 | 13 | 18 | 8.0 | 16.1 | 0.00 | 0.00 | 0.00 | 84 | 1021.4 |
| 20260507052859 | 13 | 14 | 8.0 | 16.1 | 0.00 | 0.00 | 0.00 | 84 | 1021.4 |
| 20260507051859 | 13 | 19 | 6.4 | 12.9 | 0.00 | 0.00 | 0.00 | 84 | 1021.4 |
| 20260507051400 | 13 | 20 | 6.4 | 11.3 | 0.00 | 0.00 | 0.00 | 84 | 1021.4 |
| 20260507050900 | 13 | 23 | 4.8 | 9.7 | 0.00 | 0.00 | 0.00 | 84 | 1021.4 |
| 20260507050400 | 13 | 12 | 4.8 | 9.7 | 0.00 | 0.00 | 0.00 | 84 | 1021.3 |
| 20260507045400 | 14 | 17 | 4.8 | 9.7 | 0.00 | 0.00 | 0.00 | 84 | 1021.3 |
| 20260507044859 | 14 | 21 | 3.2 | 9.7 | 0.00 | 0.00 | 0.00 | 84 | 1021.3 |
| 20260507043900 | 15 | 1 | 1.6 | 6.4 | 0.00 | 0.00 | 0.00 | 83 | 1021.2 |
| 20260507043400 | 15 | 0 | 0.0 | 3.2 | 0.00 | 0.00 | 0.00 | 83 | 1021.2 |
| 20260507042900 | 15 | 23 | 1.6 | 4.8 | 0.00 | 0.00 | 0.00 | 83 | 1021.1 |
| 20260507042359 | 15 | 8 | 1.6 | 4.8 | 0.00 | 0.00 | 0.00 | 82 | 1021.1 |
| 20260507041900 | 15 | 0 | 0.0 | 0.0 | 0.00 | 0.00 | 0.00 | 83 | 1021.0 |
| 20260507041400 | 15 | 0 | 0.0 | 0.0 | 0.00 | 0.00 | 0.00 | 84 | 1021.1 |
| 20260507040859 | 15 | 0 | 0.0 | 0.0 | 0.00 | 0.00 | 0.00 | 85 | 1020.9 |
| 20260507040400 | 15 | 0 | 0.0 | 0.0 | 0.00 | 0.00 | 0.00 | 85 | 1020.9 |
| 20260507035859 | 15 | 0 | 0.0 | 0.0 | 0.00 | 0.00 | 0.00 | 85 | 1020.8 |
| 20260507035359 | 15 | 0 | 0.0 | 0.0 | 0.00 | 0.00 | 0.00 | 86 | 1020.7 |
| 20260507034859 | 15 | 0 | 0.0 | 0.0 | 0.00 | 0.00 | 0.00 | 86 | 1020.6 |
| 20260507034359 | 15 | 0 | 0.0 | 0.0 | 0.00 | 0.00 | 0.00 | 86 | 1020.6 |
| 20260507032900 | 16 | 0 | 0.0 | 0.0 | 0.00 | 0.00 | 0.00 | 84 | 1020.3 |
| 20260507032400 | 16 | 0 | 0.0 | 1.6 | 0.00 | 0.00 | 0.00 | 84 | 1020.2 |
| 20260507031900 | 16 | 0 | 0.0 | 1.6 | 0.00 | 0.00 | 0.00 | 84 | 1020.1 |
| 20260507031359 | 16 | 0 | 0.0 | 1.6 | 0.00 | 0.00 | 0.00 | 83 | 1020.1 |
| 20260507030859 | 16 | 0 | 0.0 | 4.8 | 0.00 | 0.00 | 0.00 | 83 | 1020.0 |
| 20260507030401 | 16 | 219 | 1.6 | 4.8 | 0.00 | 0.00 | 0.00 | 82 | 1020.0 |
| 20260507025359 | 16 | 204 | 1.6 | 8.0 | 0.00 | 0.00 | 0.00 | 82 | 1019.9 |
| 20260507024859 | 16 | 220 | 1.6 | 8.0 | 0.00 | 0.00 | 0.00 | 82 | 1019.8 |
| 20260507024400 | 16 | 0 | 0.0 | 0.0 | 0.00 | 0.00 | 0.00 | 82 | 1019.9 |
| 20260507022900 | 17 | 0 | 0.0 | 0.0 | 0.00 | 0.00 | 0.00 | 79 | 1019.8 |
| 20260507022359 | 17 | 0 | 0.0 | 1.6 | 0.00 | 0.00 | 0.00 | 78 | 1019.8 |
| 20260507021400 | 17 | 0 | 0.0 | 1.6 | 0.00 | 0.00 | 0.00 | 76 | 1019.9 |
| 20260507020900 | 18 | 0 | 0.0 | 3.2 | 0.00 | 0.00 | 0.00 | 75 | 1019.9 |
| 20260507020400 | 18 | 0 | 0.0 | 3.2 | 0.00 | 0.00 | 0.00 | 73 | 1019.9 |
| 20260507015359 | 18 | 0 | 0.0 | 3.2 | 0.00 | 0.00 | 0.00 | 73 | 1019.9 |
| 20260507014900 | 18 | 211 | 1.6 | 6.4 | 0.00 | 0.00 | 0.00 | 72 | 1019.9 |
| 20260507014359 | 18 | 221 | 1.6 | 6.4 | 0.00 | 0.00 | 0.00 | 71 | 1019.9 |
| 20260507012900 | 19 | 19 | 1.6 | 6.4 | 0.00 | 0.00 | 0.00 | 71 | 1020.0 |
| 20260507011400 | 19 | 34 | 1.6 | 6.4 | 0.00 | 0.00 | 0.00 | 69 | 1020.0 |
| 20260507005901 | 20 | 265 | 1.6 | 6.4 | 0.00 | 0.00 | 0.00 | 67 | 1020.1 |
| 20260507004900 | 20 | 292 | 1.6 | 8.0 | 0.00 | 0.00 | 0.00 | 67 | 1020.2 |
| 20260507004359 | 20 | 331 | 3.2 | 9.7 | 0.00 | 0.00 | 0.00 | 69 | 1020.2 |
| 20260507003400 | 19 | 137 | 1.6 | 6.4 | 0.00 | 0.00 | 0.00 | 71 | 1020.2 |
| 20260506235901 | 18 | 319 | 1.6 | 4.8 | 0.00 | 0.00 | 0.00 | 75 | 1020.2 |
| 20260506235358 | 18 | 329 | 1.6 | 4.8 | 0.00 | 0.00 | 0.00 | 73 | 1020.3 |
| 20260506233401 | 18 | 320 | 3.2 | 6.4 | 0.00 | 0.00 | 0.00 | 76 | 1020.3 |
| 20260506231859 | 18 | 343 | 3.2 | 11.3 | 0.00 | 0.00 | 0.00 | 74 | 1020.3 |
| 20260506231400 | 19 | 340 | 3.2 | 11.3 | 0.00 | 0.00 | 0.00 | 73 | 1020.4 |
| 20260506230859 | 19 | 329 | 3.2 | 8.0 | 0.00 | 0.00 | 0.00 | 73 | 1020.5 |
| 20260506225401 | 19 | 296 | 1.6 | 8.0 | 0.00 | 0.00 | 0.00 | 75 | 1020.5 |
| 20260506224900 | 18 | 280 | 3.2 | 9.7 | 0.00 | 0.00 | 0.00 | 75 | 1020.6 |
| 20260506224359 | 18 | 217 | 4.8 | 9.7 | 0.00 | 0.00 | 0.00 | 75 | 1020.6 |
| 20260506222900 | 18 | 163 | 3.2 | 6.4 | 0.00 | 0.00 | 0.00 | 75 | 1020.6 |
| 20260506220859 | 17 | 330 | 3.2 | 8.0 | 0.00 | 0.00 | 0.00 | 78 | 1020.8 |